Torna al catalogo

DELTA 1 DEB

AttivoPO
NORAD 21290·DEBRIS·🇺🇸 United States

Lanciato Jun 12, 1975 da Vandenberg Space Force Base

Loading…

Prossimi Passaggi (prossime 24 ore)

TLE

AggiornatoSource: Space-Track

Epoca: Sep 14, 2026, 14:54 UTC

1 21290U 75052AB  26257.62121931  .00000009  00000-0  19047-3 0  9993
2 21290  99.5382 141.0523 0512232 344.2935  40.9027 12.43362454603952

Traccia DELTA 1 DEB in tempo reale con AllMySat

Download on the App Store